| time (UTC) | temp C | wind direction | speed KPH | gust KPH | rain 1hr cm | rain 24hr cm | rain mn cm | humidity % | barometer mb |
| 20260505035240 | 10 | 209 | 0.0 | 9.7 | 0.00 | 0.08 | 0.08 | 76 | 1013.3 |
| 20260505034741 | 10 | 207 | 1.6 | 9.7 | 0.00 | 0.08 | 0.08 | 76 | 1013.2 |
| 20260505034516 | 11 | 207 | 0.0 | 9.7 | 0.00 | 0.08 | 0.08 | 75 | 1011.6 |
| 20260505034241 | 10 | 207 | 3.2 | 9.7 | 0.00 | 0.08 | 0.08 | 76 | 1013.2 |
| 20260505033741 | 10 | 207 | 3.2 | 9.7 | 0.00 | 0.08 | 0.08 | 76 | 1013.3 |
| 20260505033242 | 10 | 183 | 1.6 | 9.7 | 0.00 | 0.08 | 0.08 | 76 | 1013.3 |
| 20260505033015 | 11 | 197 | 0.0 | 9.7 | 0.00 | 0.08 | 0.08 | 76 | 1011.7 |
| 20260505032740 | 10 | 198 | 1.6 | 9.7 | 0.00 | 0.08 | 0.08 | 76 | 1013.3 |
| 20260505032241 | 10 | 198 | 4.8 | 9.7 | 0.00 | 0.08 | 0.08 | 77 | 1013.2 |
| 20260505031740 | 10 | 44 | 3.2 | 6.4 | 0.00 | 0.08 | 0.08 | 77 | 1013.1 |
| 20260505031514 | 11 | 22 | 3.2 | 6.4 | 0.00 | 0.08 | 0.08 | 78 | 1011.5 |
| 20260505031241 | 10 | 260 | 0.0 | 6.4 | 0.00 | 0.08 | 0.08 | 78 | 1013.0 |
| 20260505030741 | 10 | 260 | 0.0 | 4.8 | 0.00 | 0.08 | 0.08 | 77 | 1013.1 |
| 20260505030241 | 10 | 257 | 0.0 | 4.8 | 0.00 | 0.08 | 0.08 | 77 | 1013.1 |
| 20260505030024 | 11 | 257 | 0.0 | 3.2 | 0.00 | 0.08 | 0.08 | 75 | 1011.3 |
| 20260505025740 | 10 | 259 | 0.0 | 4.8 | 0.00 | 0.08 | 0.08 | 75 | 1013.0 |
| 20260505025242 | 10 | 269 | 1.6 | 14.5 | 0.00 | 0.08 | 0.08 | 75 | 1012.8 |
| 20260505025011 | 10 | 265 | 3.2 | 14.5 | 0.00 | 0.08 | 0.08 | 75 | 1012.6 |
| 20260505024516 | 11 | 258 | 1.6 | 17.7 | 0.00 | 0.08 | 0.08 | 75 | 1010.9 |
| 20260505024242 | 10 | 273 | 4.8 | 17.7 | 0.00 | 0.08 | 0.08 | 75 | 1012.5 |
| 20260505023738 | 10 | 262 | 4.8 | 17.7 | 0.00 | 0.08 | 0.08 | 75 | 1012.4 |
| 20260505023238 | 10 | 246 | 6.4 | 14.5 | 0.03 | 0.08 | 0.08 | 76 | 1012.2 |
| 20260505023020 | 11 | 265 | 4.8 | 11.3 | 0.03 | 0.08 | 0.08 | 76 | 1010.7 |
| 20260505022738 | 10 | 259 | 4.8 | 8.0 | 0.03 | 0.08 | 0.08 | 76 | 1012.0 |
| 20260505022239 | 10 | 199 | 4.8 | 9.7 | 0.03 | 0.08 | 0.08 | 77 | 1011.9 |
| 20260505022009 | 10 | 254 | 4.8 | 9.7 | 0.05 | 0.08 | 0.08 | 76 | 1011.9 |
| 20260505021512 | 11 | 258 | 3.2 | 9.7 | 0.05 | 0.08 | 0.08 | 77 | 1010.4 |
| 20260505021239 | 10 | 234 | 4.8 | 9.7 | 0.05 | 0.08 | 0.08 | 78 | 1012.0 |
| 20260505020743 | 10 | 267 | 4.8 | 11.3 | 0.08 | 0.08 | 0.08 | 77 | 1012.2 |
| 20260505020739 | 10 | 245 | 3.2 | 11.3 | 0.05 | 0.08 | 0.08 | 77 | 1012.1 |
| 20260505020015 | 11 | 242 | 4.8 | 11.3 | 0.08 | 0.08 | 0.08 | 77 | 1010.7 |
| 20260505015739 | 10 | 241 | 4.8 | 11.3 | 0.08 | 0.08 | 0.08 | 78 | 1012.4 |
| 20260505015243 | 9 | 276 | 4.8 | 11.3 | 0.08 | 0.08 | 0.08 | 80 | 1012.4 |
| 20260505014737 | 10 | 272 | 3.2 | 11.3 | 0.08 | 0.08 | 0.08 | 80 | 1012.2 |
| 20260505014510 | 11 | 232 | 1.6 | 11.3 | 0.08 | 0.08 | 0.08 | 79 | 1010.6 |
| 20260505014237 | 10 | 258 | 3.2 | 11.3 | 0.08 | 0.08 | 0.08 | 79 | 1012.1 |
| 20260505014005 | 10 | 246 | 3.2 | 11.3 | 0.08 | 0.08 | 0.08 | 79 | 1012.2 |
| 20260505013232 | 10 | 250 | 3.2 | 11.3 | 0.05 | 0.05 | 0.05 | 78 | 1012.2 |
| 20260505013016 | 11 | 250 | 1.6 | 11.3 | 0.05 | 0.05 | 0.05 | 77 | 1010.5 |
| 20260505012731 | 10 | 295 | 3.2 | 12.9 | 0.05 | 0.05 | 0.05 | 77 | 1012.2 |
| 20260505012230 | 10 | 264 | 3.2 | 12.9 | 0.05 | 0.05 | 0.05 | 77 | 1012.5 |
| 20260505011729 | 10 | 252 | 3.2 | 12.9 | 0.03 | 0.03 | 0.03 | 76 | 1012.7 |
| 20260505011506 | 11 | 261 | 1.6 | 12.9 | 0.03 | 0.03 | 0.03 | 75 | 1010.8 |
| 20260505011229 | 10 | 290 | 4.8 | 14.5 | 0.03 | 0.03 | 0.03 | 76 | 1012.7 |
| 20260505010729 | 10 | 278 | 4.8 | 14.5 | 0.03 | 0.03 | 0.03 | 75 | 1012.7 |
| 20260505010228 | 11 | 257 | 4.8 | 14.5 | 0.00 | 0.00 | 0.00 | 74 | 1012.7 |
| 20260505010011 | 12 | 244 | 3.2 | 14.5 | 0.00 | 0.00 | 0.00 | 72 | 1011.0 |
| 20260505005729 | 11 | 219 | 4.8 | 14.5 | 0.00 | 0.00 | 0.00 | 72 | 1012.7 |
| 20260505005459 | 11 | 286 | 6.4 | 22.5 | 0.00 | 0.00 | 0.00 | 71 | 1012.6 |
| 20260505004959 | 11 | 334 | 8.0 | 22.5 | 0.00 | 0.00 | 0.00 | 70 | 1012.6 |
| 20260505004518 | 13 | 308 | 6.4 | 22.5 | 0.00 | 0.00 | 0.00 | 68 | 1010.9 |
| 20260505004227 | 12 | 338 | 9.7 | 24.1 | 0.00 | 0.00 | 0.00 | 66 | 1012.5 |
| 20260505003958 | 12 | 306 | 11.3 | 24.1 | 0.00 | 0.00 | 0.00 | 61 | 1012.2 |
| 20260505003457 | 12 | 312 | 12.9 | 22.5 | 0.00 | 0.00 | 0.00 | 59 | 1012.2 |
| 20260505003020 | 13 | 319 | 11.3 | 22.5 | 0.00 | 0.00 | 0.00 | 58 | 1010.6 |
| 20260505002726 | 13 | 333 | 11.3 | 22.5 | 0.00 | 0.00 | 0.00 | 58 | 1012.2 |
| 20260505002227 | 13 | 317 | 9.7 | 19.3 | 0.00 | 0.00 | 0.00 | 57 | 1012.2 |
| 20260505001727 | 13 | 314 | 8.0 | 19.3 | 0.00 | 0.00 | 0.00 | 55 | 1012.2 |
| 20260505001514 | 15 | 324 | 8.0 | 19.3 | 0.00 | 0.00 | 0.00 | 54 | 1010.5 |
| 20260505001226 | 14 | 322 | 8.0 | 19.3 | 0.00 | 0.00 | 0.00 | 54 | 1012.2 |
| 20260505000726 | 14 | 310 | 8.0 | 19.3 | 0.00 | 0.00 | 0.00 | 53 | 1012.0 |
| 20260505000226 | 14 | 34 | 8.0 | 16.1 | 0.00 | 0.00 | 0.00 | 50 | 1011.9 |
| 20260505000010 | 15 | 30 | 4.8 | 14.5 | 0.00 | 0.00 | 0.00 | 49 | 1010.0 |
| 20260504235726 | 14 | 46 | 9.7 | 16.1 | 0.00 | 0.00 | 0.00 | 48 | 1011.7 |
| 20260504235226 | 14 | 55 | 9.7 | 19.3 | 0.00 | 0.00 | 0.00 | 50 | 1011.9 |
| 20260504234959 | 14 | 26 | 9.7 | 19.3 | 0.00 | 0.00 | 0.00 | 52 | 1011.8 |
| 20260504234506 | 15 | 30 | 9.7 | 14.5 | 0.00 | 0.00 | 0.00 | 52 | 1010.0 |
| 20260504234227 | 14 | 44 | 8.0 | 19.3 | 0.00 | 0.00 | 0.00 | 51 | 1011.9 |
| 20260504233726 | 14 | 344 | 9.7 | 20.9 | 0.00 | 0.00 | 0.00 | 53 | 1011.9 |
| 20260504233458 | 14 | 37 | 11.3 | 20.9 | 0.00 | 0.00 | 0.00 | 52 | 1011.7 |
| 20260504233016 | 15 | 18 | 11.3 | 20.9 | 0.00 | 0.00 | 0.00 | 51 | 1009.9 |
| 20260504232726 | 14 | 355 | 9.7 | 20.9 | 0.00 | 0.00 | 0.00 | 53 | 1011.7 |
| 20260504232226 | 15 | 347 | 8.0 | 20.9 | 0.00 | 0.00 | 0.00 | 53 | 1011.9 |
| 20260504231725 | 15 | 326 | 4.8 | 14.5 | 0.00 | 0.00 | 0.00 | 51 | 1011.8 |
| 20260504231523 | 16 | 298 | 4.8 | 14.5 | 0.00 | 0.00 | 0.00 | 50 | 1010.0 |
| 20260504231224 | 15 | 271 | 4.8 | 14.5 | 0.00 | 0.00 | 0.00 | 47 | 1011.8 |
| 20260504230724 | 15 | 313 | 3.2 | 16.1 | 0.00 | 0.00 | 0.00 | 44 | 1011.7 |
| 20260504230224 | 15 | 295 | 3.2 | 16.1 | 0.00 | 0.00 | 0.00 | 45 | 1011.5 |
| 20260504230010 | 16 | 299 | 0.0 | 8.0 | 0.00 | 0.00 | 0.00 | 44 | 1009.8 |
| 20260504225726 | 15 | 288 | 4.8 | 16.1 | 0.00 | 0.00 | 0.00 | 44 | 1011.5 |
| 20260504225224 | 15 | 302 | 6.4 | 22.5 | 0.00 | 0.00 | 0.00 | 43 | 1011.3 |
| 20260504224724 | 16 | 326 | 9.7 | 22.5 | 0.00 | 0.00 | 0.00 | 42 | 1011.3 |
| 20260504224512 | 17 | 342 | 9.7 | 22.5 | 0.00 | 0.00 | 0.00 | 41 | 1009.5 |
| 20260504224455 | 16 | 348 | 12.9 | 22.5 | 0.00 | 0.00 | 0.00 | 41 | 1011.2 |
| 20260504223723 | 16 | 344 | 14.5 | 22.5 | 0.00 | 0.00 | 0.00 | 41 | 1011.1 |
| 20260504223450 | 16 | 342 | 14.5 | 27.4 | 0.00 | 0.00 | 0.00 | 40 | 1011.0 |
| 20260504223010 | 17 | 26 | 14.5 | 24.1 | 0.00 | 0.00 | 0.00 | 40 | 1009.2 |
| 20260504222718 | 16 | 32 | 16.1 | 27.4 | 0.00 | 0.00 | 0.00 | 40 | 1010.8 |
| 20260504222450 | 16 | 34 | 17.7 | 27.4 | 0.00 | 0.00 | 0.00 | 40 | 1010.8 |
| 20260504221948 | 16 | 22 | 16.1 | 27.4 | 0.00 | 0.00 | 0.00 | 40 | 1010.7 |
| 20260504221823 | 16 | 31 | 14.5 | 24.1 | 0.00 | 0.00 | 0.00 | 39 | 1010.6 |
| 20260504221510 | 17 | 47 | 20.9 | 27.4 | 0.00 | 0.00 | 0.00 | 39 | 1009.0 |
| 20260504220949 | 16 | 40 | 12.9 | 24.1 | 0.00 | 0.00 | 0.00 | 39 | 1010.6 |
| 20260504220218 | 17 | 31 | 12.9 | 24.1 | 0.00 | 0.00 | 0.00 | 37 | 1010.6 |
| 20260504220022 | 18 | 360 | 11.3 | 22.5 | 0.00 | 0.00 | 0.00 | 37 | 1008.8 |
| 20260504215718 | 16 | 35 | 12.9 | 24.1 | 0.00 | 0.00 | 0.00 | 38 | 1010.6 |
| 20260504215217 | 17 | 49 | 14.5 | 24.1 | 0.00 | 0.00 | 0.00 | 36 | 1010.8 |
| 20260504214949 | 17 | 36 | 14.5 | 24.1 | 0.00 | 0.00 | 0.00 | 36 | 1010.8 |
| 20260504214509 | 18 | 24 | 11.3 | 20.9 | 0.00 | 0.00 | 0.00 | 35 | 1009.0 |
| 20260504214216 | 17 | 55 | 14.5 | 22.5 | 0.00 | 0.00 | 0.00 | 36 | 1010.6 |
| 20260504213947 | 17 | 96 | 11.3 | 22.5 | 0.00 | 0.00 | 0.00 | 37 | 1010.8 |
| 20260504213216 | 16 | 94 | 11.3 | 22.5 | 0.00 | 0.00 | 0.00 | 38 | 1011.1 |
| 20260504213019 | 17 | 109 | 6.4 | 22.5 | 0.00 | 0.00 | 0.00 | 38 | 1009.4 |
| 20260504212716 | 16 | 69 | 11.3 | 22.5 | 0.00 | 0.00 | 0.00 | 39 | 1011.3 |
| 20260504212217 | 16 | 61 | 12.9 | 22.5 | 0.00 | 0.00 | 0.00 | 40 | 1011.3 |
| 20260504211716 | 16 | 35 | 16.1 | 29.0 | 0.00 | 0.00 | 0.00 | 40 | 1011.2 |
| 20260504211516 | 17 | 35 | 17.7 | 27.4 | 0.00 | 0.00 | 0.00 | 40 | 1009.5 |
| 20260504211216 | 15 | 49 | 17.7 | 29.0 | 0.00 | 0.00 | 0.00 | 41 | 1011.4 |
| 20260504210716 | 16 | 24 | 19.3 | 29.0 | 0.00 | 0.00 | 0.00 | 41 | 1011.5 |
| 20260504210447 | 16 | 9 | 17.7 | 37.0 | 0.00 | 0.00 | 0.00 | 39 | 1011.5 |
| 20260504210011 | 17 | 41 | 17.7 | 30.6 | 0.00 | 0.00 | 0.00 | 39 | 1009.6 |
| 20260504205713 | 16 | 13 | 19.3 | 37.0 | 0.00 | 0.00 | 0.00 | 39 | 1011.5 |
| 20260504205215 | 16 | 37 | 22.5 | 37.0 | 0.00 | 0.00 | 0.00 | 38 | 1011.2 |
| 20260504204715 | 17 | 5 | 22.5 | 37.0 | 0.00 | 0.00 | 0.00 | 37 | 1011.2 |
| 20260504204507 | 18 | 5 | 22.5 | 37.0 | 0.00 | 0.00 | 0.00 | 35 | 1009.3 |
| 20260504204445 | 17 | 30 | 20.9 | 35.4 | 0.00 | 0.00 | 0.00 | 35 | 1010.8 |
| 20260504203714 | 17 | 350 | 22.5 | 38.6 | 0.00 | 0.00 | 0.00 | 34 | 1010.6 |
| 20260504203214 | 17 | 19 | 22.5 | 38.6 | 0.00 | 0.00 | 0.00 | 33 | 1010.4 |
| 20260504203034 | 18 | 14 | 24.1 | 38.6 | 0.00 | 0.00 | 0.00 | 32 | 1008.6 |
| 20260504202714 | 17 | 34 | 24.1 | 46.7 | 0.00 | 0.00 | 0.00 | 33 | 1010.4 |
| 20260504202213 | 17 | 5 | 25.7 | 46.7 | 0.00 | 0.00 | 0.00 | 33 | 1010.1 |
| 20260504201714 | 17 | 5 | 27.4 | 51.5 | 0.00 | 0.00 | 0.00 | 34 | 1010.1 |
| 20260504201514 | 18 | 360 | 25.7 | 51.5 | 0.00 | 0.00 | 0.00 | 33 | 1008.6 |
| 20260504201211 | 17 | 11 | 27.4 | 51.5 | 0.00 | 0.00 | 0.00 | 33 | 1010.7 |
| 20260504200942 | 18 | 0 | 22.5 | 40.2 | 0.00 | 0.00 | 0.00 | 31 | 1010.5 |
| 20260504200211 | 19 | 33 | 20.9 | 37.0 | 0.00 | 0.00 | 0.00 | 28 | 1010.7 |
| 20260504200022 | 21 | 33 | 19.3 | 37.0 | 0.00 | 0.00 | 0.00 | 26 | 1008.9 |
| 20260504195712 | 20 | 325 | 14.5 | 37.0 | 0.00 | 0.00 | 0.00 | 25 | 1010.5 |
| 20260504195211 | 21 | 34 | 11.3 | 22.5 | 0.00 | 0.00 | 0.00 | 21 | 1010.4 |
| 20260504194712 | 21 | 337 | 11.3 | 22.5 | 0.00 | 0.00 | 0.00 | 22 | 1010.0 |
| 20260504194508 | 22 | 346 | 9.7 | 22.5 | 0.00 | 0.00 | 0.00 | 22 | 1008.4 |
| 20260504194216 | 21 | 355 | 11.3 | 22.5 | 0.00 | 0.00 | 0.00 | 24 | 1010.0 |
| 20260504194212 | 21 | 355 | 11.3 | 22.5 | 0.00 | 0.00 | 0.00 | 24 | 1010.1 |
| 20260504193443 | 20 | 333 | 9.7 | 22.5 | 0.00 | 0.00 | 0.00 | 25 | 1010.0 |
| 20260504193017 | 21 | 331 | 9.7 | 22.5 | 0.00 | 0.00 | 0.00 | 25 | 1008.3 |
| 20260504192712 | 20 | 317 | 9.7 | 22.5 | 0.00 | 0.00 | 0.00 | 26 | 1010.0 |
| 20260504192210 | 20 | 286 | 11.3 | 30.6 | 0.00 | 0.00 | 0.00 | 27 | 1010.0 |
| 20260504191710 | 20 | 355 | 12.9 | 30.6 | 0.00 | 0.00 | 0.00 | 27 | 1010.0 |
| 20260504191521 | 21 | 275 | 11.3 | 25.7 | 0.00 | 0.00 | 0.00 | 27 | 1008.4 |
| 20260504191210 | 20 | 317 | 12.9 | 25.7 | 0.00 | 0.00 | 0.00 | 26 | 1010.0 |
| 20260504190708 | 21 | 273 | 11.3 | 20.9 | 0.00 | 0.00 | 0.00 | 26 | 1010.1 |
| 20260504190206 | 21 | 269 | 9.7 | 22.5 | 0.00 | 0.00 | 0.00 | 25 | 1010.0 |
| 20260504190010 | 22 | 271 | 9.7 | 22.5 | 0.00 | 0.00 | 0.00 | 25 | 1008.3 |
| 20260504185706 | 21 | 298 | 8.0 | 22.5 | 0.00 | 0.00 | 0.00 | 26 | 1010.1 |
| 20260504185434 | 21 | 342 | 6.4 | 19.3 | 0.00 | 0.00 | 0.00 | 24 | 1010.0 |
| 20260504184703 | 21 | 307 | 8.0 | 19.3 | 0.00 | 0.00 | 0.00 | 25 | 1009.9 |
| 20260504184506 | 22 | 290 | 4.8 | 19.3 | 0.00 | 0.00 | 0.00 | 23 | 1008.3 |
| 20260504184202 | 21 | 223 | 8.0 | 19.3 | 0.00 | 0.00 | 0.00 | 23 | 1010.0 |
| 20260504183702 | 21 | 263 | 8.0 | 22.5 | 0.00 | 0.00 | 0.00 | 24 | 1010.1 |
| 20260504183202 | 21 | 282 | 9.7 | 22.5 | 0.00 | 0.00 | 0.00 | 24 | 1010.1 |
| 20260504183005 | 22 | 217 | 4.8 | 22.5 | 0.00 | 0.00 | 0.00 | 24 | 1008.4 |
| 20260504182701 | 20 | 272 | 12.9 | 22.5 | 0.00 | 0.00 | 0.00 | 24 | 1010.3 |
| 20260504182202 | 20 | 261 | 12.9 | 22.5 | 0.00 | 0.00 | 0.00 | 24 | 1010.3 |
| 20260504181934 | 20 | 226 | 12.9 | 22.5 | 0.00 | 0.00 | 0.00 | 24 | 1010.4 |
| 20260504181516 | 21 | 235 | 12.9 | 22.5 | 0.00 | 0.00 | 0.00 | 24 | 1008.6 |
| 20260504181202 | 20 | 232 | 11.3 | 22.5 | 0.00 | 0.00 | 0.00 | 24 | 1010.4 |
| 20260504180702 | 20 | 195 | 9.7 | 20.9 | 0.00 | 0.00 | 0.00 | 24 | 1010.4 |
| 20260504180201 | 20 | 213 | 9.7 | 17.7 | 0.00 | 0.00 | 0.00 | 25 | 1010.5 |
| 20260504180017 | 21 | 244 | 8.0 | 17.7 | 0.00 | 0.00 | 0.00 | 24 | 1008.7 |
| 20260504175701 | 20 | 265 | 8.0 | 16.1 | 0.00 | 0.00 | 0.00 | 25 | 1010.5 |
| 20260504175432 | 20 | 237 | 8.0 | 17.7 | 0.00 | 0.00 | 0.00 | 25 | 1010.6 |
| 20260504174701 | 20 | 247 | 8.0 | 17.7 | 0.00 | 0.00 | 0.00 | 25 | 1010.6 |
| 20260504174509 | 21 | 230 | 6.4 | 17.7 | 0.00 | 0.00 | 0.00 | 25 | 1008.8 |
| 20260504174433 | 20 | 227 | 8.0 | 17.7 | 0.00 | 0.00 | 0.00 | 26 | 1010.7 |
| 20260504173934 | 20 | 231 | 9.7 | 17.7 | 0.00 | 0.00 | 0.00 | 25 | 1010.7 |
| 20260504173808 | 19 | 228 | 9.7 | 22.5 | 0.00 | 0.00 | 0.00 | 25 | 1010.8 |
| 20260504173202 | 19 | 217 | 9.7 | 19.3 | 0.00 | 0.00 | 0.00 | 25 | 1010.8 |
| 20260504173010 | 20 | 212 | 8.0 | 19.3 | 0.00 | 0.00 | 0.00 | 25 | 1008.9 |
| 20260504172201 | 19 | 205 | 9.7 | 22.5 | 0.00 | 0.00 | 0.00 | 25 | 1010.8 |
| 20260504171701 | 19 | 229 | 9.7 | 22.5 | 0.00 | 0.00 | 0.00 | 25 | 1010.8 |
| 20260504171506 | 20 | 218 | 9.7 | 22.5 | 0.00 | 0.00 | 0.00 | 24 | 1009.0 |
| 20260504171202 | 19 | 264 | 9.7 | 22.5 | 0.00 | 0.00 | 0.00 | 25 | 1011.0 |
| 20260504170701 | 19 | 233 | 11.3 | 20.9 | 0.00 | 0.00 | 0.00 | 25 | 1011.0 |
| 20260504170202 | 19 | 211 | 11.3 | 20.9 | 0.00 | 0.00 | 0.00 | 25 | 1011.0 |
| 20260504160200 | 18 | 267 | 8.0 | 20.9 | 0.00 | 0.00 | 0.00 | 23 | 1011.0 |
| 20260504150653 | 18 | 247 | 11.3 | 25.7 | 0.00 | 0.00 | 0.00 | 23 | 1011.1 |
| 20260504150153 | 18 | 246 | 11.3 | 25.7 | 0.00 | 0.00 | 0.00 | 23 | 1011.2 |
| 20260504141150 | 16 | 0 | 3.2 | 9.7 | 0.00 | 0.00 | 0.00 | 28 | 1011.3 |
| 20260504140920 | 15 | 274 | 3.2 | 8.0 | 0.00 | 0.00 | 0.00 | 27 | 1011.3 |
| 20260504140149 | 15 | 274 | 1.6 | 14.5 | 0.00 | 0.00 | 0.00 | 26 | 1011.2 |
| 20260504130645 | 11 | 100 | 1.6 | 6.4 | 0.00 | 0.00 | 0.00 | 31 | 1011.4 |
| 20260504130145 | 11 | 131 | 3.2 | 17.7 | 0.00 | 0.00 | 0.00 | 30 | 1011.4 |
| 20260504110638 | 9 | 258 | 3.2 | 6.4 | 0.00 | 0.00 | 0.00 | 36 | 1011.5 |
| 20260504110137 | 9 | 258 | 3.2 | 6.4 | 0.00 | 0.00 | 0.00 | 36 | 1011.7 |
| 20260504100134 | 8 | 259 | 1.6 | 8.0 | 0.00 | 0.00 | 0.00 | 40 | 1011.8 |
| 20260504090129 | 9 | 286 | 0.0 | 3.2 | 0.00 | 0.00 | 0.00 | 40 | 1012.0 |
| 20260504081629 | 9 | 286 | 1.6 | 4.8 | 0.00 | 0.00 | 0.00 | 42 | 1012.5 |
| 20260504081520 | 10 | 286 | 0.0 | 4.8 | 0.00 | 0.00 | 0.00 | 41 | 1011.0 |
| 20260504081128 | 9 | 319 | 3.2 | 4.8 | 0.00 | 0.00 | 0.00 | 39 | 1012.7 |
| 20260504080629 | 9 | 320 | 1.6 | 4.8 | 0.00 | 0.00 | 0.00 | 38 | 1012.7 |
| 20260504080128 | 9 | 341 | 0.0 | 4.8 | 0.00 | 0.00 | 0.00 | 43 | 1012.7 |
| 20260504070128 | 11 | 347 | 0.0 | 0.0 | 0.00 | 0.00 | 0.00 | 39 | 1013.1 |
| 20260504050624 | 14 | 31 | 0.0 | 0.0 | 0.00 | 0.00 | 0.00 | 33 | 1013.5 |
| 20260504050355 | 14 | 31 | 0.0 | 0.0 | 0.00 | 0.00 | 0.00 | 29 | 1013.5 |
| 20260504050017 | 15 | 31 | 0.0 | 0.0 | 0.00 | 0.00 | 0.00 | 28 | 1011.7 |
| 20260504045855 | 15 | 31 | 0.0 | 0.0 | 0.00 | 0.00 | 0.00 | 30 | 1013.5 |
| 20260504045357 | 15 | 31 | 0.0 | 8.0 | 0.00 | 0.00 | 0.00 | 31 | 1013.7 |
| 20260504044624 | 15 | 31 | 0.0 | 8.0 | 0.00 | 0.00 | 0.00 | 31 | 1013.7 |
| 20260504044515 | 16 | 31 | 0.0 | 8.0 | 0.00 | 0.00 | 0.00 | 31 | 1012.0 |
| 20260504044125 | 15 | 31 | 1.6 | 8.0 | 0.00 | 0.00 | 0.00 | 30 | 1013.8 |
| 20260504043624 | 15 | 31 | 4.8 | 20.9 | 0.00 | 0.00 | 0.00 | 29 | 1013.7 |
| 20260504043125 | 15 | 32 | 8.0 | 20.9 | 0.00 | 0.00 | 0.00 | 29 | 1013.8 |
| 20260504043012 | 17 | 30 | 4.8 | 20.9 | 0.00 | 0.00 | 0.00 | 28 | 1011.9 |
| 20260504042855 | 16 | 32 | 11.3 | 20.9 | 0.00 | 0.00 | 0.00 | 28 | 1013.7 |
| 20260504042355 | 16 | 36 | 12.9 | 20.9 | 0.00 | 0.00 | 0.00 | 27 | 1013.7 |
| 20260504041625 | 16 | 19 | 12.9 | 20.9 | 0.00 | 0.00 | 0.00 | 27 | 1013.7 |
| 20260504041524 | 17 | 25 | 12.9 | 19.3 | 0.00 | 0.00 | 0.00 | 26 | 1011.8 |
| 20260504041125 | 16 | 32 | 12.9 | 20.9 | 0.00 | 0.00 | 0.00 | 26 | 1013.5 |
| 20260504040624 | 16 | 342 | 11.3 | 20.9 | 0.00 | 0.00 | 0.00 | 27 | 1013.4 |
| 20260504040125 | 15 | 355 | 6.4 | 19.3 | 0.00 | 0.00 | 0.00 | 27 | 1013.4 |
| 20260504040024 | 16 | 323 | 8.0 | 17.7 | 0.00 | 0.00 | 0.00 | 29 | 1011.7 |